Weather History for KSLN - May, 2013

Change the Weather History Date:

Tuesday, May 14, 2013

  Actual Average Record
Temperature  
Mean Temperature 75 °F 65 °F  
Max Temperature 94 °F 76 °F 101 °F (1941)
Min Temperature 56 °F 53 °F 27 °F (1953)
Degree Days  
Heating Degree Days 0 3  
Month to date heating degree days 120 64  
Since 1 July heating degree days 4910 4832  
Cooling Degree Days 10 3  
Month to date cooling degree days 13 28  
Year to date cooling degree days 28 53  
Growing Degree Days 25 (Base 50)    
Moisture  
Dew Point 52 °F    
Average Humidity 53    
Maximum Humidity 84    
Minimum Humidity 22    
Precipitation  
Precipitation 0.00 in 0.15 in 1.05 in (1992)
Month to date precipitation 2.39 1.90  
Year to date precipitation 8.61 9.14  
Sea Level Pressure  
Sea Level Pressure 29.80 in    
Wind  
Wind Speed 13 mph (South)    
Max Wind Speed 26 mph    
Max Gust Speed 32 mph    
Visibility 10 miles    
Events      
T = Trace of Precipitation, MM = Missing Value Source: NWS Daily Summary

Daily Weather History Graph

Daily Weather History Graph

Search for Another Location

Airport or City:

Trip Planner

Search our weather history database for the weather conditions in past years. The results will help you decide how hot, cold, wet, or windy it might be!

Date:

Astronomy

May. 14, 2013 Rise Set
Actual Time 6:18 AM CDT 8:35 PM CDT
Civil Twilight 5:49 AM CDT 9:05 PM CDT
Nautical Twilight 5:12 AM CDT 9:42 PM CDT
Astronomical Twilight 4:32 AM CDT 10:22 PM CDT
Moon 9:59 AM CDT (5/14) No Moon Set
Length of Visible Light 15h 16m
Length of Day
14h 16m
Waxing Crescent, 19% of the Moon is Illuminated
May 14
Waxing Crescent
May 17
First Quarter
May 24
Full
May 31
Last Quarter
Jun 8
New

Hourly Weather History & Observations

Time (CDT) Temp. Heat Index Dew Point Humidity Pressure Visibility Wind Dir Wind Speed Gust Speed Precip Events Conditions
12:53 AM 66.0 °F - 57.0 °F 73% 29.88 in 10.0 mi South 8.1 mph - N/A   Clear
1:53 AM 63.0 °F - 55.9 °F 78% 29.86 in 10.0 mi South 6.9 mph - N/A   Unknown
2:53 AM 61.0 °F - 55.0 °F 81% 29.84 in 10.0 mi South 8.1 mph - N/A   Clear
3:53 AM 59.0 °F - 53.1 °F 81% 29.83 in 10.0 mi South 5.8 mph - N/A   Clear
4:53 AM 57.9 °F - 51.1 °F 78% 29.83 in 10.0 mi South 6.9 mph - N/A   Clear
5:53 AM 59.0 °F - 48.0 °F 67% 29.83 in 10.0 mi Calm Calm - N/A   Clear
6:53 AM 59.0 °F - 46.9 °F 64% 29.85 in 10.0 mi ESE 3.5 mph - N/A   Clear
7:53 AM 64.0 °F - 50.0 °F 60% 29.85 in 10.0 mi South 6.9 mph - N/A   Clear
8:53 AM 71.1 °F - 48.9 °F 45% 29.85 in 10.0 mi SSW 10.4 mph - N/A   Clear
9:53 AM 77.0 °F - 46.9 °F 34% 29.85 in 10.0 mi SSW 13.8 mph - N/A   Clear
10:53 AM 81.0 °F - 51.1 °F 35% 29.84 in 10.0 mi SSW 15.0 mph - N/A   Clear
11:53 AM 84.9 °F - 51.1 °F 31% 29.83 in 10.0 mi SSW 16.1 mph 24.2 mph N/A   Clear
12:53 PM 89.1 °F 86.7 °F 53.1 °F 29% 29.81 in 10.0 mi SSW 19.6 mph 24.2 mph N/A   Clear
1:53 PM 91.0 °F - 52.0 °F 26% 29.79 in 10.0 mi SSW 21.9 mph 28.8 mph N/A   Clear
2:53 PM 93.0 °F - 51.1 °F 24% 29.78 in 10.0 mi SSW 20.7 mph 29.9 mph N/A   Clear
3:53 PM 93.0 °F - 48.9 °F 22% 29.76 in 10.0 mi SSW 25.3 mph 31.1 mph N/A   Clear
4:53 PM 93.0 °F - 48.0 °F 21% 29.75 in 10.0 mi SSW 20.7 mph 31.1 mph N/A   Clear
5:53 PM 88.0 °F 86.5 °F 55.9 °F 34% 29.74 in 10.0 mi South 16.1 mph 25.3 mph N/A   Clear
6:53 PM 84.9 °F - 52.0 °F 32% 29.74 in 10.0 mi South 18.4 mph 26.5 mph N/A   Clear
7:53 PM 80.1 °F - 52.0 °F 38% 29.74 in 10.0 mi South 11.5 mph - N/A   Clear
8:53 PM 75.0 °F - 51.1 °F 43% 29.75 in 10.0 mi South 10.4 mph - N/A   Clear
9:53 PM 72.0 °F - 54.0 °F 53% 29.77 in 10.0 mi South 9.2 mph - N/A   Clear
10:53 PM 73.9 °F - 55.0 °F 52% 29.77 in 10.0 mi South 12.7 mph 20.7 mph N/A   Clear
11:53 PM 73.0 °F - 55.0 °F 53% 29.77 in 10.0 mi South 16.1 mph 24.2 mph N/A   Clear